User: anonymous   Login
Location: Unspecified
(0.0000°N, 0.0000°E)
Time: 02:09:17
(UTC+00:00)
Language:

STARLINK-34647 - Orbit

View from above orbital plane
View from above orbital plane
View from above satellite
View from above satellite

Ground track
Ground track

The orbit is defined by the following mean orbital elements,

1 64904U          26145.26144086 +.00000000 +00000-0 +12382-1 0 00002
2 64904  53.1599 350.2642 0002842 172.9125 187.1917 15.31841428    03
Epoch (UTC): 25 May 2026 06:16:28
Eccentricity: 0.0002842
inclination: 53.1599°
perigee height: 468 km
apogee height: 472 km
right ascension of ascending node: 350.2642°
argument of perigee: 172.9125°
revolutions per day: 15.31841428
mean anomaly at epoch: 187.1917°

The dashed part of the orbit path shows where the satellite is in the earth's shadow,  

DLR